BAW462 LSZH-LSZB

Flight info

Callsign BAW462
Flight time 0h 25m
Altitude 7000
Route VEBIT T544 WIL/N0283F090 Z601 ROTOS
Aircraft B772/H-SDE2E3FGHIJ5LORVWXY/LB1D1

Departure

Time 2026-05-08 18:16
Airport Zürich Airport (LSZH)

Arrival

Time 2026-05-08 18:41
Airport Bern Airport (LSZB)
Time Latitude Longitude Altitude Speed Heading
2026-05-08 17:57 47.45593 8.55462 1410 ft 0 kts
2026-05-08 18:04 47.45572 8.55459 1404 ft 12 kts
2026-05-08 18:04 47.45535 8.55455 1410 ft 0 kts 17°
2026-05-08 18:05 47.45535 8.55456 1410 ft 0 kts 18°
2026-05-08 18:05 47.45539 8.55461 1408 ft 5 kts 39°
2026-05-08 18:05 47.45533 8.55609 1408 ft 25 kts 100°
2026-05-08 18:05 47.45496 8.55932 1403 ft 35 kts 98°
2026-05-08 18:06 47.45502 8.56259 1407 ft 26 kts 59°
2026-05-08 18:06 47.45580 8.56393 1406 ft 23 kts 48°
2026-05-08 18:06 47.45589 8.56599 1411 ft 19 kts 99°
2026-05-08 18:06 47.45573 8.56791 1409 ft 19 kts 96°
2026-05-08 18:07 47.45553 8.56973 1404 ft 12 kts 116°
2026-05-08 18:07 47.45510 8.57044 1410 ft 5 kts 108°
2026-05-08 18:07 47.45532 8.57080 1413 ft 5 kts 11°
2026-05-08 18:07 47.45540 8.57075 1411 ft 0 kts 333°
2026-05-08 18:11 47.45565 8.57039 1407 ft 9 kts 320°
2026-05-08 18:11 47.45624 8.57024 1414 ft 9 kts 360°
2026-05-08 18:12 47.45661 8.56971 1419 ft 5 kts 278°
2026-05-08 18:12 47.45664 8.56944 1415 ft 0 kts 276°
2026-05-08 18:15 47.45680 8.56742 1414 ft 71 kts 276°
2026-05-08 18:15 47.45773 8.55394 1432 ft 187 kts 275°
2026-05-08 18:16 47.45911 8.53298 2542 ft 212 kts 276°
2026-05-08 18:16 47.46077 8.51005 3599 ft 234 kts 276°
2026-05-08 18:16 47.46241 8.48561 4512 ft 242 kts 273°
2026-05-08 18:16 47.45877 8.46116 5315 ft 252 kts 238°
2026-05-08 18:17 47.44614 8.44347 6281 ft 253 kts 213°
2026-05-08 18:17 47.43191 8.42689 6881 ft 272 kts 224°
2026-05-08 18:17 47.41896 8.40573 6980 ft 282 kts 231°
2026-05-08 18:17 47.40728 8.38288 6997 ft 281 kts 234°
2026-05-08 18:18 47.39597 8.35943 6993 ft 280 kts 234°
2026-05-08 18:18 47.38519 8.33566 6975 ft 279 kts 240°
2026-05-08 18:18 47.37615 8.31035 6994 ft 278 kts 243°
2026-05-08 18:18 47.36748 8.28496 6973 ft 277 kts 243°
2026-05-08 18:19 47.35872 8.25974 6996 ft 276 kts 242°
2026-05-08 18:19 47.34992 8.23458 6981 ft 276 kts 242°
2026-05-08 18:19 47.34110 8.20955 6984 ft 275 kts 242°
2026-05-08 18:19 47.33222 8.18453 6977 ft 275 kts 242°
2026-05-08 18:20 47.32342 8.15985 6978 ft 276 kts 242°
2026-05-08 18:20 47.31453 8.13485 6976 ft 276 kts 242°
2026-05-08 18:20 47.30568 8.10977 6993 ft 276 kts 242°
2026-05-08 18:20 47.29699 8.08457 6981 ft 277 kts 244°
2026-05-08 18:21 47.28914 8.05863 6992 ft 278 kts 246°
2026-05-08 18:21 47.28153 8.03242 6992 ft 279 kts 246°
2026-05-08 18:21 47.27390 8.00621 6973 ft 279 kts 246°
2026-05-08 18:21 47.26620 7.97994 6991 ft 279 kts 246°
2026-05-08 18:22 47.25846 7.95371 6987 ft 280 kts 246°
2026-05-08 18:22 47.25067 7.92752 6971 ft 279 kts 246°
2026-05-08 18:22 47.24300 7.90177 6985 ft 279 kts 246°
2026-05-08 18:22 47.23517 7.87550 6968 ft 279 kts 246°
2026-05-08 18:23 47.22736 7.84938 6936 ft 280 kts 246°
2026-05-08 18:23 47.21942 7.82289 6535 ft 287 kts 246°
2026-05-08 18:23 47.21129 7.79579 5893 ft 287 kts 246°
2026-05-08 18:23 47.20331 7.76927 5255 ft 280 kts 246°
2026-05-08 18:24 47.19553 7.74343 4632 ft 274 kts 246°
2026-05-08 18:24 47.18765 7.71816 4211 ft 273 kts 242°
2026-05-08 18:24 47.17816 7.69381 4043 ft 275 kts 238°
2026-05-08 18:24 47.16833 7.67025 3972 ft 273 kts 238°
2026-05-08 18:25 47.15859 7.64664 3976 ft 268 kts 239°
2026-05-08 18:25 47.14898 7.62309 3989 ft 269 kts 239°
2026-05-08 18:25 47.13936 7.59939 3973 ft 271 kts 239°
2026-05-08 18:25 47.12973 7.57560 3974 ft 271 kts 239°
2026-05-08 18:26 47.12184 7.55086 3971 ft 266 kts 253°
2026-05-08 18:26 47.11763 7.52414 3972 ft 270 kts 258°
2026-05-08 18:26 47.11391 7.49720 3991 ft 267 kts 258°
2026-05-08 18:26 47.11005 7.47093 3985 ft 258 kts 257°
2026-05-08 18:27 47.10626 7.44625 3970 ft 245 kts 257°
2026-05-08 18:27 47.10375 7.43005 3972 ft 236 kts 257°
2026-05-08 18:27 47.09903 7.40001 3981 ft 222 kts 256°
2026-05-08 18:27 47.09555 7.37806 3990 ft 220 kts 255°
2026-05-08 18:28 47.08879 7.35866 3972 ft 214 kts 219°
2026-05-08 18:28 47.07603 7.34767 4007 ft 215 kts 205°
2026-05-08 18:28 47.06239 7.33824 3981 ft 217 kts 196°
2026-05-08 18:28 47.04759 7.33752 4008 ft 216 kts 161°
2026-05-08 18:29 47.03497 7.34847 4009 ft 213 kts 139°
2026-05-08 18:29 47.02360 7.36257 4009 ft 215 kts 139°
2026-05-08 18:29 47.01208 7.37666 3996 ft 215 kts 139°
2026-05-08 18:29 47.00072 7.39065 3978 ft 211 kts 139°
2026-05-08 18:30 46.98952 7.40446 3867 ft 209 kts 139°
2026-05-08 18:30 46.97874 7.41773 3727 ft 193 kts 139°
2026-05-08 18:30 46.96882 7.42993 3435 ft 178 kts 139°
2026-05-08 18:30 46.95987 7.44093 3125 ft 155 kts 139°
2026-05-08 18:31 46.95224 7.45030 2856 ft 138 kts 139°
2026-05-08 18:31 46.94512 7.45905 2621 ft 131 kts 139°
2026-05-08 18:31 46.93800 7.46779 2395 ft 137 kts 140°
2026-05-08 18:31 46.93066 7.47691 2128 ft 139 kts 140°
2026-05-08 18:32 46.92321 7.48615 1865 ft 140 kts 142°
2026-05-08 18:32 46.91570 7.49533 1705 ft 139 kts 141°
2026-05-08 18:32 46.90875 7.50371 1656 ft 114 kts 139°
2026-05-08 18:32 46.90222 7.51233 2079 ft 143 kts 137°
2026-05-08 18:33 46.89391 7.52304 2896 ft 172 kts 137°
2026-05-08 18:33 46.88633 7.53727 4096 ft 192 kts 114°
2026-05-08 18:33 46.88610 7.55836 4790 ft 226 kts 67°
2026-05-08 18:33 46.89657 7.57441 6046 ft 232 kts 32°
2026-05-08 18:34 46.91087 7.58637 6295 ft 238 kts 28°
2026-05-08 18:34 46.92437 7.59986 6196 ft 229 kts 33°
2026-05-08 18:34 46.93884 7.60643 6136 ft 221 kts 358°
2026-05-08 18:34 46.95423 7.60447 6178 ft 224 kts 350°
2026-05-08 18:35 46.96852 7.59552 6170 ft 221 kts 331°
2026-05-08 18:35 46.98309 7.58967 6151 ft 224 kts
2026-05-08 18:35 46.99770 7.59619 6166 ft 221 kts 15°
2026-05-08 18:35 47.01282 7.59505 6152 ft 228 kts 334°
2026-05-08 18:36 47.02585 7.58130 6014 ft 235 kts 321°
2026-05-08 18:36 47.03911 7.56667 5528 ft 242 kts 323°
2026-05-08 18:36 47.04962 7.54760 5099 ft 245 kts 291°
2026-05-08 18:36 47.05153 7.52303 4759 ft 246 kts 258°
2026-05-08 18:37 47.04421 7.50084 4587 ft 239 kts 229°
2026-05-08 18:37 47.03353 7.48316 4600 ft 226 kts 227°
2026-05-08 18:37 47.02349 7.46616 4574 ft 215 kts 228°
2026-05-08 18:37 47.01401 7.45010 4557 ft 200 kts 228°
2026-05-08 18:38 47.00544 7.43569 4601 ft 175 kts 227°
2026-05-08 18:38 46.99681 7.42583 4567 ft 148 kts 197°
2026-05-08 18:38 46.98714 7.42501 4601 ft 138 kts 172°
2026-05-08 18:38 46.97759 7.42732 4548 ft 140 kts 165°
2026-05-08 18:39 46.96871 7.43284 4244 ft 139 kts 146°
2026-05-08 18:39 46.96078 7.44063 3987 ft 133 kts 144°
2026-05-08 18:39 46.95341 7.44886 3964 ft 136 kts 139°
2026-05-08 18:39 46.94633 7.45899 3258 ft 146 kts 135°
2026-05-08 18:40 46.93878 7.46837 2690 ft 139 kts 144°
2026-05-08 18:40 46.93109 7.47647 2135 ft 137 kts 140°
2026-05-08 18:40 46.92391 7.48539 1862 ft 134 kts 143°
2026-05-08 18:40 46.91683 7.49390 1694 ft 128 kts 141°
2026-05-08 18:41 46.91269 7.49899 1695 ft 24 kts 129°
2026-05-08 18:41 46.91270 7.50025 1682 ft 10 kts 118°
2026-05-08 18:41 46.91219 7.50096 1651 ft 10 kts 139°
2026-05-08 18:41 46.91188 7.50135 1653 ft 10 kts 139°
2026-05-08 18:42 46.91151 7.50179 1652 ft 6 kts 140°
2026-05-08 18:42 46.91120 7.50219 1652 ft 6 kts 135°
2026-05-08 18:42 46.91092 7.50260 1653 ft 6 kts 138°
2026-05-08 18:42 46.91061 7.50301 1650 ft 6 kts 140°
2026-05-08 18:43 46.91009 7.50358 1657 ft 15 kts 140°
2026-05-08 18:43 46.90998 7.50402 1655 ft 5 kts 57°
2026-05-08 18:43 46.91016 7.50401 1653 ft 1 kts 339°
2026-05-08 18:43 46.91028 7.50396 1655 ft 1 kts 329°
2026-05-08 18:44 46.91031 7.50389 1657 ft 0 kts 303°
2026-05-08 18:47 46.91030 7.50389 1656 ft 0 kts 304°